Time,TemperatureF,DewpointF,PressureIn,WindDirection,WindDirectionDegrees,WindSpeedMPH,WindSpeedGustMPH,Humidity,HourlyPrecipIn,Conditions,Clouds,dailyrainin,SoftwareType,DateUTC
2013-02-14 00:02:00,37.0,26.0,29.67,ENE,57,0.0,0.0,65,0.00,,,0.00,,2013-02-14 05:02:00,
2013-02-14 00:11:00,37.0,26.0,29.67,ENE,57,0.0,0.0,65,0.00,,,0.00,,2013-02-14 05:11:00,
2013-02-14 00:22:00,37.0,26.0,29.68,NNE,19,1.0,3.0,65,0.00,,,0.00,,2013-02-14 05:22:00,
2013-02-14 00:32:00,37.0,26.0,29.67,NNE,19,0.0,3.0,65,0.00,,,0.00,,2013-02-14 05:32:00,
2013-02-14 00:42:00,37.0,26.0,29.67,NNE,19,0.0,3.0,65,0.00,,,0.00,,2013-02-14 05:42:00,
2013-02-14 00:52:00,37.0,26.0,29.67,North,4,1.0,3.0,65,0.00,,,0.00,,2013-02-14 05:52:00,
2013-02-14 01:02:00,37.0,26.0,29.67,North,352,0.0,4.0,65,0.00,,,0.00,,2013-02-14 06:02:00,
2013-02-14 01:11:00,37.0,26.0,29.67,North,352,0.0,3.0,65,0.00,,,0.00,,2013-02-14 06:11:00,
2013-02-14 01:21:00,37.0,26.0,29.67,North,352,0.0,3.0,65,0.00,,,0.00,,2013-02-14 06:21:00,
2013-02-14 01:32:00,37.0,26.0,29.67,North,356,0.0,3.0,65,0.00,,,0.00,,2013-02-14 06:32:00,
2013-02-14 01:42:00,37.0,26.0,29.67,North,356,0.0,3.0,65,0.00,,,0.00,,2013-02-14 06:42:00,
2013-02-14 01:52:00,37.0,26.0,29.67,NE,48,1.0,8.0,65,0.00,,,0.00,,2013-02-14 06:52:00,
2013-02-14 02:01:00,37.0,26.0,29.67,NE,42,0.0,5.0,65,0.00,,,0.00,,2013-02-14 07:01:00,
2013-02-14 02:11:00,37.0,26.0,29.68,North,7,0.0,3.0,65,0.00,,,0.00,,2013-02-14 07:11:00,
2013-02-14 02:21:00,37.0,26.0,29.68,North,7,0.0,3.0,65,0.00,,,0.00,,2013-02-14 07:21:00,
2013-02-14 02:32:00,37.0,26.0,29.67,North,356,0.0,1.0,65,0.00,,,0.00,,2013-02-14 07:32:00,
2013-02-14 02:42:00,37.0,26.0,29.67,North,356,0.0,1.0,65,0.00,,,0.00,,2013-02-14 07:42:00,
2013-02-14 02:52:00,37.0,26.0,29.66,North,360,1.0,5.0,65,0.00,,,0.00,,2013-02-14 07:52:00,
2013-02-14 03:01:00,37.0,26.0,29.67,North,350,3.0,6.0,65,0.00,,,0.00,,2013-02-14 08:01:00,
2013-02-14 03:11:00,37.0,26.0,29.67,North,350,3.0,6.0,65,0.00,,,0.00,,2013-02-14 08:11:00,
2013-02-14 03:22:00,37.0,26.0,29.66,NNE,13,1.0,5.0,65,0.00,,,0.00,,2013-02-14 08:22:00,
2013-02-14 03:32:00,37.0,26.0,29.66,NNE,20,0.0,0.0,65,0.00,,,0.00,,2013-02-14 08:32:00,
2013-02-14 03:43:00,37.0,26.0,29.66,NNE,20,0.0,0.0,65,0.00,,,0.00,,2013-02-14 08:43:00,
2013-02-14 03:52:00,37.0,26.0,29.66,North,1,0.0,0.0,65,0.00,,,0.00,,2013-02-14 08:52:00,
2013-02-14 04:02:00,37.0,26.0,29.66,NNW,342,0.0,0.0,65,0.00,,,0.00,,2013-02-14 09:02:00,
2013-02-14 04:11:00,37.0,26.0,29.66,NNE,20,0.0,0.0,65,0.00,,,0.00,,2013-02-14 09:11:00,
2013-02-14 04:21:00,37.0,26.0,29.66,NNE,20,0.0,0.0,65,0.00,,,0.00,,2013-02-14 09:21:00,
2013-02-14 04:32:00,37.0,26.0,29.66,NNW,337,0.0,0.0,65,0.00,,,0.00,,2013-02-14 09:32:00,
2013-02-14 04:42:00,37.0,26.0,29.66,NNW,337,0.0,0.0,65,0.00,,,0.00,,2013-02-14 09:42:00,
2013-02-14 04:52:00,37.0,26.0,29.66,NNE,24,0.0,0.0,65,0.00,,,0.00,,2013-02-14 09:52:00,
2013-02-14 05:02:00,37.0,26.0,29.66,North,349,0.0,0.0,65,0.00,,,0.00,,2013-02-14 10:02:00,
2013-02-14 05:11:00,37.0,26.0,29.68,NNE,15,0.0,0.0,65,0.00,,,0.00,,2013-02-14 10:11:00,
2013-02-14 05:21:00,37.0,26.0,29.68,NNE,15,0.0,0.0,65,0.00,,,0.00,,2013-02-14 10:21:00,
2013-02-14 05:32:00,37.0,26.0,29.68,North,359,2.0,7.0,65,0.00,,,0.00,,2013-02-14 10:32:00,
2013-02-14 05:42:00,37.0,26.0,29.68,North,359,2.0,7.0,65,0.00,,,0.00,,2013-02-14 10:42:00,
2013-02-14 05:52:00,37.0,26.0,29.68,North,360,2.0,7.0,65,0.00,,,0.00,,2013-02-14 10:52:00,
2013-02-14 06:02:00,37.0,26.0,29.69,North,352,2.0,6.0,65,0.00,,,0.00,,2013-02-14 11:02:00,
2013-02-14 06:11:00,37.0,26.0,29.70,NNW,347,2.0,7.0,65,0.00,,,0.00,,2013-02-14 11:11:00,
2013-02-14 06:21:00,37.0,26.0,29.70,NNW,347,2.0,7.0,65,0.00,,,0.00,,2013-02-14 11:21:00,
2013-02-14 06:32:00,37.0,26.0,29.71,North,353,2.0,7.0,65,0.00,,,0.00,,2013-02-14 11:32:00,
2013-02-14 06:42:00,37.0,26.0,29.71,North,353,2.0,7.0,65,0.00,,,0.00,,2013-02-14 11:42:00,
2013-02-14 06:52:00,37.0,26.0,29.71,NNW,346,3.0,8.0,65,0.00,,,0.00,,2013-02-14 11:52:00,
2013-02-14 07:02:00,37.0,26.0,29.71,North,356,2.0,8.0,65,0.00,,,0.00,,2013-02-14 12:02:00,
2013-02-14 07:12:00,37.0,26.0,29.71,North,356,2.0,8.0,65,0.00,,,0.00,,2013-02-14 12:12:00,
2013-02-14 07:22:00,37.0,26.0,29.72,NNW,331,1.0,5.0,65,0.00,,,0.00,,2013-02-14 12:22:00,
2013-02-14 07:32:00,37.0,26.0,29.73,North,357,1.0,5.0,65,0.00,,,0.00,,2013-02-14 12:32:00,
2013-02-14 07:42:00,37.0,26.0,29.73,North,357,1.0,5.0,65,0.00,,,0.00,,2013-02-14 12:42:00,
2013-02-14 07:53:00,37.0,26.0,29.74,North,351,0.0,5.0,65,0.00,,,0.00,,2013-02-14 12:53:00,
2013-02-14 08:02:00,37.0,26.0,29.74,North,354,1.0,2.0,65,0.00,,,0.00,,2013-02-14 13:02:00,
2013-02-14 08:11:00,37.0,26.0,29.74,North,354,1.0,2.0,65,0.00,,,0.00,,2013-02-14 13:11:00,
2013-02-14 08:21:00,34.0,33.0,29.76,North,356,2.0,5.0,97,0.00,,,0.00,,2013-02-14 13:21:00,
2013-02-14 08:32:00,35.0,34.0,29.76,North,4,3.0,8.0,96,0.00,,,0.00,,2013-02-14 13:32:00,
2013-02-14 08:42:00,35.0,34.0,29.76,North,4,3.0,8.0,96,0.00,,,0.00,,2013-02-14 13:42:00,
2013-02-14 08:52:00,36.0,34.0,29.78,North,352,4.0,14.0,94,0.00,,,0.00,,2013-02-14 13:52:00,
2013-02-14 09:01:00,36.0,35.0,29.77,North,1,2.0,8.0,95,0.00,,,0.00,,2013-02-14 14:01:00,
2013-02-14 09:11:00,36.0,35.0,29.78,North,4,2.0,9.0,95,0.00,,,0.02,,2013-02-14 14:11:00,
2013-02-14 09:21:00,36.0,35.0,29.78,North,4,2.0,9.0,95,0.00,,,0.02,,2013-02-14 14:21:00,
2013-02-14 09:32:00,37.0,36.0,29.79,North,355,5.0,12.0,95,0.01,,,0.03,,2013-02-14 14:32:00,
2013-02-14 09:42:00,37.0,36.0,29.79,North,355,5.0,12.0,95,0.01,,,0.03,,2013-02-14 14:42:00,
2013-02-14 09:52:00,38.0,35.0,29.80,North,351,4.0,17.0,88,0.04,,,0.06,,2013-02-14 14:52:00,
2013-02-14 10:02:00,39.0,35.0,29.80,NNW,346,6.0,15.0,87,0.05,,,0.07,,2013-02-14 15:02:00,
2013-02-14 10:11:00,39.0,35.0,29.80,NNW,346,6.0,15.0,87,0.05,,,0.07,,2013-02-14 15:11:00,
2013-02-14 10:21:00,39.0,35.0,29.82,North,356,4.0,13.0,84,0.00,,,0.10,,2013-02-14 15:21:00,
2013-02-14 10:32:00,39.0,34.0,29.83,North,358,6.0,13.0,83,0.01,,,0.11,,2013-02-14 15:32:00,
2013-02-14 10:42:00,39.0,34.0,29.83,North,358,6.0,13.0,83,0.01,,,0.11,,2013-02-14 15:42:00,
2013-02-14 10:52:00,38.0,33.0,29.83,North,359,5.0,16.0,83,0.03,,,0.13,,2013-02-14 15:52:00,
2013-02-14 11:02:00,39.0,33.0,29.84,North,358,5.0,15.0,80,0.04,,,0.14,,2013-02-14 16:02:00,
2013-02-14 11:11:00,39.0,33.0,29.85,North,351,6.0,13.0,78,0.00,,,0.16,,2013-02-14 16:11:00,
2013-02-14 11:21:00,39.0,33.0,29.85,North,351,6.0,13.0,78,0.00,,,0.16,,2013-02-14 16:21:00,
2013-02-14 11:32:00,39.0,32.0,29.85,North,351,6.0,15.0,77,0.01,,,0.17,,2013-02-14 16:32:00,
2013-02-14 11:42:00,39.0,32.0,29.85,North,351,6.0,15.0,77,0.01,,,0.17,,2013-02-14 16:42:00,
2013-02-14 11:52:00,39.0,32.0,29.86,North,351,6.0,16.0,77,0.01,,,0.17,,2013-02-14 16:52:00,
2013-02-14 12:01:00,40.0,33.0,29.86,North,10,5.0,14.0,76,0.02,,,0.18,,2013-02-14 17:01:00,
2013-02-14 12:11:00,41.0,33.0,29.87,North,355,5.0,14.0,73,0.00,,,0.18,,2013-02-14 17:11:00,
2013-02-14 12:21:00,41.0,33.0,29.87,North,355,5.0,14.0,73,0.00,,,0.18,,2013-02-14 17:21:00,
2013-02-14 12:32:00,41.0,33.0,29.87,North,355,5.0,14.0,73,0.00,,,0.18,,2013-02-14 17:32:00,
2013-02-14 12:42:00,41.0,33.0,29.87,North,355,5.0,14.0,73,0.00,,,0.18,,2013-02-14 17:42:00,
2013-02-14 12:52:00,41.0,33.0,29.88,North,7,5.0,12.0,73,0.01,,,0.19,,2013-02-14 17:52:00,
2013-02-14 13:01:00,41.0,34.0,29.88,North,353,6.0,17.0,75,0.01,,,0.19,,2013-02-14 18:01:00,
2013-02-14 13:11:00,41.0,34.0,29.88,North,353,6.0,17.0,75,0.01,,,0.19,,2013-02-14 18:11:00,
2013-02-14 13:23:00,40.0,32.0,29.88,North,359,6.0,15.0,74,0.00,,,0.19,,2013-02-14 18:23:00,
2013-02-14 13:32:00,40.0,31.0,29.88,North,5,7.0,14.0,71,0.00,,,0.19,,2013-02-14 18:32:00,
2013-02-14 13:42:00,40.0,31.0,29.88,North,5,7.0,14.0,71,0.00,,,0.19,,2013-02-14 18:42:00,
2013-02-14 13:52:00,40.0,31.0,29.89,North,350,7.0,14.0,70,0.00,,,0.19,,2013-02-14 18:52:00,
2013-02-14 14:02:00,40.0,30.0,29.89,North,5,6.0,14.0,67,0.00,,,0.19,,2013-02-14 19:02:00,
2013-02-14 14:11:00,40.0,30.0,29.89,North,5,6.0,14.0,67,0.00,,,0.19,,2013-02-14 19:11:00,
2013-02-14 14:22:00,40.0,31.0,29.89,NNW,348,6.0,14.0,69,0.00,,,0.19,,2013-02-14 19:22:00,
2013-02-14 14:32:00,40.0,30.0,29.90,North,3,5.0,12.0,67,0.00,,,0.19,,2013-02-14 19:32:00,
2013-02-14 14:42:00,40.0,30.0,29.90,North,3,5.0,12.0,67,0.00,,,0.19,,2013-02-14 19:42:00,
2013-02-14 14:52:00,39.0,30.0,29.90,North,3,3.0,10.0,70,0.00,,,0.19,,2013-02-14 19:52:00,
2013-02-14 15:01:00,39.0,29.0,29.90,NNE,13,2.0,10.0,67,0.00,,,0.19,,2013-02-14 20:01:00,
2013-02-14 15:11:00,39.0,28.0,29.90,NE,42,2.0,8.0,64,0.00,,,0.19,,2013-02-14 20:11:00,
2013-02-14 15:21:00,39.0,28.0,29.90,NE,42,2.0,8.0,64,0.00,,,0.19,,2013-02-14 20:21:00,
2013-02-14 15:32:00,40.0,28.0,29.91,NE,43,1.0,7.0,63,0.00,,,0.19,,2013-02-14 20:32:00,
2013-02-14 15:42:00,40.0,28.0,29.91,NE,43,1.0,7.0,63,0.00,,,0.19,,2013-02-14 20:42:00,
2013-02-14 15:52:00,39.0,25.0,29.91,North,1,0.0,5.0,56,0.00,,,0.19,,2013-02-14 20:52:00,
2013-02-14 16:02:00,40.0,26.0,29.92,NE,50,2.0,5.0,57,0.00,,,0.19,,2013-02-14 21:02:00,
2013-02-14 16:11:00,40.0,26.0,29.92,NE,50,2.0,5.0,57,0.00,,,0.19,,2013-02-14 21:11:00,
2013-02-14 16:21:00,39.0,25.0,29.92,North,5,0.0,4.0,57,0.00,,,0.19,,2013-02-14 21:21:00,
2013-02-14 16:32:00,39.0,25.0,29.93,North,354,0.0,2.0,57,0.00,,,0.19,,2013-02-14 21:32:00,
2013-02-14 16:42:00,39.0,25.0,29.93,North,354,0.0,2.0,57,0.00,,,0.19,,2013-02-14 21:42:00,
2013-02-14 16:52:00,39.0,25.0,29.94,North,1,0.0,0.0,56,0.00,,,0.19,,2013-02-14 21:52:00,
2013-02-14 17:02:00,39.0,26.0,29.94,East,91,1.0,4.0,59,0.00,,,0.19,,2013-02-14 22:02:00,
2013-02-14 17:11:00,39.0,26.0,29.93,South,169,1.0,4.0,59,0.00,,,0.19,,2013-02-14 22:11:00,
2013-02-14 17:21:00,39.0,26.0,29.93,South,169,1.0,4.0,59,0.00,,,0.19,,2013-02-14 22:21:00,
2013-02-14 17:32:00,39.0,26.0,29.94,South,169,0.0,3.0,59,0.00,,,0.19,,2013-02-14 22:32:00,
2013-02-14 17:42:00,39.0,26.0,29.94,South,169,0.0,3.0,59,0.00,,,0.19,,2013-02-14 22:42:00,
2013-02-14 17:52:00,39.0,26.0,29.95,South,169,0.0,1.0,59,0.00,,,0.19,,2013-02-14 22:52:00,
2013-02-14 18:01:00,39.0,26.0,29.97,South,169,0.0,1.0,59,0.00,,,0.19,,2013-02-14 23:01:00,
2013-02-14 18:11:00,39.0,26.0,29.97,South,169,0.0,1.0,59,0.00,,,0.19,,2013-02-14 23:11:00,
2013-02-14 18:21:00,39.0,26.0,29.98,South,179,1.0,3.0,59,0.00,,,0.19,,2013-02-14 23:21:00,
2013-02-14 18:32:00,39.0,26.0,29.98,South,181,0.0,3.0,59,0.00,,,0.19,,2013-02-14 23:32:00,
2013-02-14 18:42:00,39.0,26.0,29.98,South,181,0.0,3.0,59,0.00,,,0.19,,2013-02-14 23:42:00,
2013-02-14 18:52:00,39.0,26.0,29.98,South,182,0.0,4.0,59,0.00,,,0.19,,2013-02-14 23:52:00,
2013-02-14 19:01:00,39.0,26.0,29.99,SSW,203,2.0,6.0,59,0.00,,,0.19,,2013-02-15 00:01:00,
2013-02-14 19:11:00,39.0,26.0,29.99,SSW,203,2.0,6.0,59,0.00,,,0.19,,2013-02-15 00:11:00,
2013-02-14 19:22:00,39.0,26.0,29.99,SSW,211,0.0,0.0,59,0.00,,,0.19,,2013-02-15 00:22:00,
2013-02-14 19:32:00,39.0,26.0,29.98,SSW,211,0.0,0.0,59,0.00,,,0.19,,2013-02-15 00:32:00,
2013-02-14 19:42:00,39.0,26.0,29.98,SSW,211,0.0,0.0,59,0.00,,,0.19,,2013-02-15 00:42:00,
2013-02-14 19:52:00,39.0,26.0,29.98,SSW,211,0.0,0.0,59,0.00,,,0.19,,2013-02-15 00:52:00,
2013-02-14 20:02:00,39.0,26.0,29.98,SSW,211,0.0,0.0,59,0.00,,,0.19,,2013-02-15 01:02:00,
2013-02-14 20:11:00,39.0,26.0,29.98,SSW,211,0.0,0.0,59,0.00,,,0.19,,2013-02-15 01:11:00,
2013-02-14 20:21:00,39.0,26.0,29.99,SSW,210,2.0,3.0,59,0.00,,,0.19,,2013-02-15 01:21:00,
2013-02-14 20:32:00,39.0,26.0,29.99,SSW,199,2.0,4.0,59,0.00,,,0.19,,2013-02-15 01:32:00,
2013-02-14 20:41:00,39.0,26.0,29.99,SSW,199,2.0,4.0,59,0.00,,,0.19,,2013-02-15 01:41:00,
2013-02-14 20:52:00,39.0,26.0,29.99,SSW,199,0.0,2.0,59,0.00,,,0.19,,2013-02-15 01:52:00,
2013-02-14 21:01:00,39.0,26.0,29.99,SSW,199,0.0,1.0,59,0.00,,,0.19,,2013-02-15 02:01:00,
2013-02-14 21:11:00,39.0,26.0,29.99,SSW,199,0.0,1.0,59,0.00,,,0.19,,2013-02-15 02:11:00,
2013-02-14 21:21:00,39.0,26.0,30.00,SSW,199,0.0,3.0,59,0.00,,,0.19,,2013-02-15 02:21:00,
2013-02-14 21:32:00,39.0,26.0,30.00,SSW,198,0.0,3.0,59,0.00,,,0.19,,2013-02-15 02:32:00,
2013-02-14 21:41:00,39.0,26.0,30.00,SSW,198,0.0,3.0,59,0.00,,,0.19,,2013-02-15 02:41:00,
2013-02-14 21:52:00,39.0,26.0,30.01,SSW,199,0.0,3.0,59,0.00,,,0.19,,2013-02-15 02:52:00,
2013-02-14 22:02:00,39.0,26.0,30.01,SSW,199,0.0,1.0,59,0.00,,,0.19,,2013-02-15 03:02:00,
2013-02-14 22:11:00,39.0,26.0,30.01,SSW,199,0.0,1.0,59,0.00,,,0.19,,2013-02-15 03:11:00,
2013-02-14 22:22:00,39.0,26.0,30.00,SSW,198,3.0,4.0,59,0.00,,,0.19,,2013-02-15 03:22:00,
2013-02-14 22:32:00,39.0,26.0,30.00,SSW,199,3.0,5.0,59,0.00,,,0.19,,2013-02-15 03:32:00,
2013-02-14 22:42:00,39.0,26.0,30.00,SSW,199,3.0,5.0,59,0.00,,,0.19,,2013-02-15 03:42:00,
2013-02-14 22:52:00,39.0,26.0,30.00,SSW,202,3.0,6.0,59,0.00,,,0.19,,2013-02-15 03:52:00,
2013-02-14 23:01:00,39.0,26.0,30.00,SSW,202,3.0,5.0,59,0.00,,,0.19,,2013-02-15 04:01:00,
2013-02-14 23:11:00,39.0,26.0,30.00,SSW,202,3.0,5.0,59,0.00,,,0.19,,2013-02-15 04:11:00,
2013-02-14 23:21:00,39.0,26.0,30.01,SSW,194,1.0,4.0,59,0.00,,,0.19,,2013-02-15 04:21:00,
2013-02-14 23:32:00,39.0,26.0,30.01,South,185,3.0,5.0,59,0.00,,,0.19,,2013-02-15 04:32:00,
2013-02-14 23:42:00,39.0,26.0,30.01,South,185,3.0,5.0,59,0.00,,,0.19,,2013-02-15 04:42:00,
2013-02-14 23:52:00,39.0,26.0,30.01,SSW,195,2.0,4.0,59,0.00,,,0.19,,2013-02-15 04:52:00,